Temp
-10 -10 -10 -10 -10 -10 -10 -10 -10 -10 -10 -10 -10 -10 -10 -10 -10 -10 -10 -10 -10 -10 -10 -10 -10 -10 -9 -10 -9 -9 -9 -9 -9 -9 -10 -10 -10 -10 -10 -10 -10 -10 -10 -10 -10
-10 -11 -10 -10 -10 -10 -10 -10 -10 -10 -10 -10 -10 -10 -10 -11 -10 -10 -10 -10 -10 -10 -10 -10 -9 -9 -9 -10 -9 -9 -9 -9 -9 -9 -9 -10 -9 -10 -9 -9 -10 -10 -10 -10 -10
-11 -10 -11 -10 -10 -10 -11 -10 -10 -10 -10 -10 -10 -10 -11 -11 -11 -11 -11 -10 -10 -10 -10 -10 -10 -10 -9 -9 -9 -9 -9 -9 -9 -9 -9 -9 -9 -10 -9 -9 -10 -10 -11 -10 -10
-11 -10 -11 -11 -10 -11 -11 -11 -11 -11 -10 -10 -11 -11 -11 -12 -12 -12 -12 -11 -11 -11 -10 -10 -10 -10 -10 -9 -9 -9 -9 -9 -9 -9 -9 -9 -9 -9 -9 -9 -11 -11 -11 -11 -11
-11 -11 -11 -11 -11 -11 -11 -11 -11 -11 -11 -11 -11 -11 -11 -11 -12 -12 -12 -12 -11 -11 -11 -11 -10 -10 -10 -10 -10 -9 -9 -9 -9 -9 -9 -9 -9 -9 -9 -10 -10 -11 -11 -11 -12
-11 -12 -11 -11 -11 -12 -12 -12 -11 -11 -11 -11 -11 -11 -11 -12 -12 -12 -12 -12 -12 -12 -11 -11 -11 -11 -10 -10 -10 -10 -9 -9 -9 -9 -9 -9 -9 -9 -9 -11 -10 -10 -11 -11 -12
-12 -12 -12 -12 -12 -12 -12 -12 -12 -12 -11 -11 -12 -11 -11 -12 -12 -12 -12 -12 -12 -12 -12 -11 -11 -11 -10 -11 -10 -10 -10 -10 -10 -9 -9 -9 -8 -9 -9 -10 -11 -11 -11 -12 -12
-13 -12 -12 -12 -12 -13 -13 -13 -12 -12 -12 -12 -12 -12 -12 -12 -12 -12 -12 -12 -13 -12 -12 -11 -11 -11 -11 -11 -11 -11 -10 -10 -10 -10 -10 -10 -9 -9 -10 -10 -10 -11 -11 -12 -12
-13 -13 -13 -13 -13 -13 -13 -13 -13 -12 -12 -12 -12 -12 -12 -12 -12 -12 -12 -12 -12 -12 -13 -12 -12 -12 -12 -11 -11 -11 -10 -10 -10 -10 -10 -10 -9 -9 -11 -12 -11 -11 -12 -12 -12
-13 -13 -13 -13 -13 -13 -13 -13 -13 -12 -12 -12 -12 -12 -12 -12 -12 -12 -13 -12 -12 -12 -12 -12 -12 -12 -12 -11 -11 -11 -11 -10 -10 -11 -10 -10 -9 -10 -10 -11 -12 -12 -12 -13 -13
-14 -14 -14 -14 -14 -14 -14 -14 -14 -12 -12 -13 -13 -13 -12 -13 -13 -13 -13 -13 -12 -12 -12 -12 -12 -12 -12 -11 -11 -11 -11 -11 -12 -12 -11 -11 -9 -11 -12 -12 -12 -12 -13 -13 -13
-14 -14 -14 -14 -14 -15 -15 -15 -15 -14 -13 -13 -13 -13 -13 -13 -13 -13 -13 -13 -13 -12 -13 -13 -13 -12 -13 -12 -12 -12 -12 -12 -12 -13 -13 -12 -10 -11 -13 -13 -14 -14 -13 -13 -13
-15 -15 -15 -15 -15 -16 -16 -15 -15 -15 -14 -14 -14 -14 -14 -14 -14 -13 -13 -14 -13 -13 -13 -13 -13 -13 -13 -14 -14 -14 -14 -14 -14 -14 -14 -14 -11 -12 -13 -14 -14 -14 -14 -14 -14
-16 -15 -16 -15 -15 -16 -16 -16 -15 -15 -15 -14 -14 -14 -14 -13 -13 -13 -13 -14 -14 -14 -14 -14 -14 -15 -15 -14 -15 -15 -15 -15 -14 -14 -14 -14 -13 -12 -14 -14 -14 -14 -14 -14 -14
-16 -16 -15 -15 -15 -16 -15 -16 -16 -15 -15 -14 -13 -13 -13 -13 -13 -13 -14 -14 -14 -14 -15 -15 -15 -16 -16 -16 -16 -16 -15 -15 -16 -16 -15 -15 -16 -12 -14 -14 -14 -14 -14 -14 -15
-17 -16 -16 -16 -16 -15 -15 -16 -15 -16 -15 -15 -14 -13 -13 -13 -13 -13 -13 -14 -15 -15 -15 -16 -16 -16 -16 -17 -17 -17 -16 -16 -16 -16 -16 -16 -16 -15 -15 -15 -15 -15 -15 -15 -15
-18 -17 -17 -16 -16 -16 -16 -16 -16 -15 -15 -15 -15 -15 -14 -14 -14 -14 -15 -16 -16 -16 -16 -17 -17 -17 -17 -17 -17 -17 -17 -17 -16 -16 -16 -16 -16 -16 -16 -16 -16 -15 -15 -15 -15
-18 -18 -17 -17 -16 -16 -17 -17 -16 -15 -16 -16 -16 -16 -15 -15 -16 -16 -17 -17 -17 -17 -18 -18 -18 -18 -18 -18 -17 -17 -18 -18 -18 -17 -17 -17 -17 -17 -19 -18 -17 -16 -16 -16 -16
-18 -18 -18 -18 -17 -17 -18 -17 -16 -16 -16 -17 -17 -17 -16 -17 -17 -18 -17 -17 -17 -18 -18 -18 -17 -18 -19 -18 -18 -18 -18 -18 -19 -18 -18 -17 -18 -18 -19 -20 -20 -20 -20 -21 -20
-19 -19 -19 -18 -18 -17 -18 -17 -17 -17 -17 -17 -17 -17 -17 -18 -18 -19 -19 -18 -18 -19 -19 -18 -19 -18 -19 -19 -19 -18 -18 -19 -21 -21 -21 -21 -21 -22 -23 -24 -24 -24 -24 -24 -22
-20 -20 -19 -19 -19 -18 -18 -18 -18 -18 -18 -18 -18 -17 -18 -18 -19 -20 -19 -19 -19 -19 -19 -19 -19 -19 -19 -19 -19 -20 -21 -21 -22 -25 -26 -26 -24 -25 -25 -25 -24 -24 -24 -23 -22
-21 -21 -20 -19 -19 -18 -18 -18 -18 -19 -19 -18 -18 -18 -18 -19 -20 -20 -21 -21 -20 -20 -20 -19 -19 -20 -20 -21 -20 -21 -23 -25 -26 -26 -27 -26 -26 -25 -25 -26 -25 -24 -23 -23 -22
-21 -21 -21 -20 -20 -19 -18 -18 -18 -19 -19 -18 -18 -18 -20 -20 -20 -21 -21 -21 -21 -20 -20 -20 -20 -21 -21 -22 -24 -25 -25 -26 -27 -26 -26 -26 -26 -26 -25 -25 -25 -23 -23 -23 -22
-22 -21 -20 -21 -20 -20 -19 -19 -20 -19 -19 -18 -19 -20 -21 -22 -22 -21 -21 -21 -21 -21 -21 -20 -21 -21 -23 -24 -26 -26 -27 -27 -27 -27 -26 -26 -26 -26 -25 -25 -25 -24 -23 -23 -22
-22 -21 -21 -20 -20 -21 -20 -19 -20 -19 -19 -20 -21 -22 -22 -22 -22 -22 -22 -21 -21 -21 -21 -21 -22 -23 -25 -26 -26 -26 -27 -27 -27 -27 -26 -26 -26 -25 -26 -25 -25 -25 -24 -23 -22
-22 -21 -21 -21 -21 -20 -20 -20 -20 -20 -20 -22 -23 -23 -22 -22 -22 -22 -22 -21 -21 -21 -22 -23 -25 -26 -26 -26 -26 -26 -27 -27 -27 -27 -27 -26 -26 -26 -26 -25 -25 -25 -25 -23 -23
-22 -22 -22 -21 -21 -20 -20 -20 -21 -22 -22 -23 -23 -23 -23 -22 -22 -22 -22 -22 -22 -22 -24 -25 -26 -26 -26 -26 -26 -26 -26 -27 -27 -27 -27 -26 -27 -27 -27 -26 -25 -24 -25 -24 -24
Height
5793 5793 5793 5793 5793 5793 5794 5794 5795 5795 5795 5796 5796 5797 5797 5797 5796 5799 5801 5801 5800 5802 5802 5802 5803 5803 5803 5804 5803 5804 5802 5805 5810 5810 5811 5812 5811 5811 5810 5810 5810 5809 5805 5809 5810
5784 5786 5786 5786 5788 5788 5788 5789 5788 5789 5789 5790 5790 5791 5791 5791 5790 5791 5793 5793 5792 5793 5795 5795 5796 5797 5797 5797 5797 5797 5796 5798 5800 5801 5801 5804 5803 5805 5804 5803 5806 5804 5799 5798 5803
5777 5778 5778 5779 5780 5781 5782 5782 5783 5783 5784 5783 5784 5784 5785 5785 5784 5785 5785 5785 5785 5785 5786 5787 5788 5789 5789 5790 5790 5790 5790 5792 5791 5792 5791 5793 5796 5795 5796 5797 5797 5797 5796 5791 5792
5768 5770 5771 5772 5772 5772 5774 5775 5776 5777 5778 5777 5776 5776 5777 5778 5778 5779 5778 5777 5777 5778 5778 5779 5780 5780 5781 5781 5783 5783 5784 5783 5784 5784 5783 5783 5785 5788 5785 5786 5788 5788 5788 5787 5783
5761 5762 5762 5763 5764 5763 5764 5765 5767 5769 5770 5771 5771 5769 5770 5771 5772 5771 5771 5771 5771 5770 5770 5771 5771 5771 5773 5774 5774 5774 5774 5774 5774 5774 5775 5775 5776 5776 5777 5777 5777 5778 5778 5779 5777
5750 5752 5753 5754 5755 5754 5755 5756 5757 5759 5761 5763 5764 5763 5763 5764 5765 5762 5762 5764 5765 5764 5763 5762 5762 5763 5764 5765 5765 5765 5765 5765 5764 5765 5765 5765 5767 5765 5769 5766 5765 5766 5768 5769 5768
5741 5742 5742 5742 5745 5746 5747 5748 5750 5751 5753 5755 5756 5755 5757 5757 5757 5757 5756 5755 5756 5756 5755 5755 5754 5754 5755 5756 5756 5755 5755 5755 5755 5754 5755 5756 5758 5758 5756 5755 5756 5756 5758 5759 5760
5731 5732 5733 5734 5735 5737 5738 5739 5741 5743 5745 5747 5747 5746 5747 5748 5748 5750 5749 5748 5747 5747 5747 5746 5746 5744 5746 5746 5746 5746 5746 5745 5744 5743 5744 5746 5751 5748 5746 5746 5746 5745 5746 5748 5750
5718 5721 5722 5724 5725 5725 5726 5729 5732 5735 5736 5738 5739 5740 5739 5740 5740 5740 5741 5741 5740 5740 5737 5737 5735 5735 5734 5733 5734 5734 5735 5734 5732 5731 5733 5735 5739 5738 5736 5736 5736 5735 5735 5736 5738
5706 5709 5713 5714 5713 5713 5715 5718 5719 5724 5727 5727 5729 5732 5731 5731 5730 5730 5731 5731 5731 5730 5730 5729 5728 5726 5723 5722 5724 5724 5723 5722 5720 5720 5721 5724 5733 5725 5721 5720 5722 5722 5723 5724 5725
5695 5698 5701 5704 5705 5704 5705 5708 5713 5715 5715 5717 5719 5721 5721 5721 5721 5720 5720 5721 5720 5719 5717 5717 5717 5715 5714 5715 5714 5712 5712 5710 5707 5705 5708 5711 5720 5717 5710 5708 5706 5706 5709 5709 5711
5686 5688 5691 5692 5694 5696 5697 5700 5703 5706 5707 5708 5708 5709 5712 5712 5711 5710 5711 5712 5711 5710 5707 5706 5705 5703 5703 5703 5702 5700 5699 5697 5696 5694 5695 5697 5707 5707 5699 5697 5694 5694 5693 5692 5694
5674 5676 5680 5682 5684 5686 5688 5690 5694 5697 5699 5700 5700 5701 5701 5702 5702 5702 5703 5701 5701 5700 5699 5696 5694 5693 5691 5690 5689 5688 5687 5687 5685 5683 5683 5682 5690 5695 5691 5685 5680 5681 5679 5677 5676
5664 5667 5668 5672 5678 5676 5679 5682 5683 5685 5689 5693 5693 5692 5693 5693 5693 5693 5693 5693 5691 5690 5688 5685 5683 5683 5681 5679 5679 5677 5676 5675 5674 5671 5672 5668 5666 5687 5681 5671 5668 5667 5666 5665 5665
5652 5657 5661 5663 5664 5668 5670 5671 5673 5675 5676 5681 5683 5684 5683 5684 5684 5684 5683 5682 5681 5680 5678 5675 5673 5671 5670 5669 5668 5666 5663 5661 5660 5658 5656 5660 5643 5672 5666 5654 5653 5652 5651 5650 5650
5640 5644 5649 5653 5655 5658 5661 5660 5664 5668 5667 5668 5671 5672 5672 5671 5672 5672 5672 5672 5672 5670 5668 5665 5662 5663 5661 5658 5656 5654 5653 5650 5648 5645 5646 5649 5627 5650 5650 5640 5638 5634 5633 5634 5633
5626 5631 5637 5641 5644 5647 5650 5650 5654 5656 5660 5663 5663 5662 5662 5662 5663 5663 5662 5661 5662 5660 5658 5655 5652 5652 5651 5649 5645 5643 5640 5635 5636 5631 5633 5630 5622 5622 5625 5622 5616 5617 5616 5617 5618
5614 5619 5624 5629 5632 5636 5637 5641 5644 5650 5651 5652 5653 5653 5655 5655 5654 5653 5652 5651 5652 5651 5648 5647 5644 5643 5642 5638 5635 5631 5628 5623 5617 5617 5614 5617 5608 5611 5599 5599 5595 5594 5596 5595 5596
5601 5607 5612 5617 5620 5624 5627 5629 5636 5640 5642 5642 5643 5644 5646 5646 5645 5644 5643 5643 5643 5643 5640 5636 5635 5632 5629 5627 5626 5622 5616 5610 5601 5601 5592 5602 5595 5590 5581 5576 5572 5570 5572 5573 5576
5586 5594 5598 5603 5607 5611 5615 5622 5625 5629 5631 5632 5634 5637 5636 5636 5637 5637 5635 5636 5636 5635 5631 5627 5626 5622 5617 5615 5611 5607 5603 5597 5587 5584 5578 5579 5577 5572 5570 5568 5566 5564 5564 5566 5565
5574 5581 5586 5591 5595 5600 5606 5611 5615 5618 5621 5623 5625 5627 5628 5627 5628 5628 5627 5628 5627 5625 5623 5619 5618 5611 5607 5604 5599 5593 5588 5584 5581 5576 5571 5568 5571 5568 5566 5565 5563 5562 5562 5560 5559
5562 5567 5573 5579 5585 5591 5597 5601 5606 5609 5611 5613 5615 5618 5619 5620 5621 5620 5620 5620 5619 5616 5612 5609 5606 5601 5597 5591 5587 5584 5580 5575 5574 5573 5570 5568 5568 5565 5565 5563 5562 5560 5559 5558 5557
5551 5557 5563 5569 5574 5582 5586 5590 5595 5599 5603 5606 5607 5609 5611 5612 5613 5612 5612 5612 5611 5607 5604 5602 5599 5593 5586 5584 5579 5576 5574 5572 5571 5568 5569 5566 5564 5563 5562 5560 5558 5557 5556 5553 5552
5540 5546 5553 5560 5565 5570 5576 5581 5585 5589 5593 5596 5598 5600 5603 5604 5604 5604 5605 5604 5602 5600 5597 5593 5590 5584 5579 5575 5574 5573 5570 5568 5566 5566 5565 5562 5560 5559 5558 5556 5554 5553 5551 5549 5548
5531 5538 5547 5552 5557 5562 5567 5573 5577 5581 5585 5587 5589 5594 5597 5597 5598 5598 5598 5597 5595 5592 5588 5585 5580 5577 5574 5571 5570 5568 5567 5564 5562 5560 5559 5558 5554 5553 5552 5551 5549 5547 5544 5544 5544
5525 5532 5538 5543 5547 5552 5558 5564 5570 5573 5578 5582 5585 5588 5589 5591 5593 5592 5592 5590 5588 5584 5579 5576 5573 5571 5569 5568 5566 5564 5562 5560 5558 5556 5553 5550 5550 5548 5547 5546 5545 5543 5542 5539 5540
5518 5525 5531 5534 5540 5544 5551 5557 5562 5566 5572 5576 5580 5581 5585 5586 5587 5586 5585 5583 5580 5577 5573 5572 5569 5567 5565 5564 5563 5561 5559 5557 5555 5553 5550 5547 5547 5544 5541 5541 5541 5539 5538 5538 5537
Wind_Speed
41 39 36 37 35 34 34 32 30 31 33 33 32 31 32 33 36 34 33 35 35 34 35 36 37 36 36 33 33 33 38 35 30 30 29 28 32 33 35 36 38 40 44 41 40
45 43 42 40 41 40 37 36 34 32 31 31 31 31 33 34 36 36 35 36 37 36 36 38 39 38 36 33 36 36 39 37 36 37 39 36 38 36 40 40 38 41 46 48 44
47 46 46 47 45 46 42 41 41 39 35 33 33 32 31 34 35 35 36 36 37 36 36 36 37 37 38 38 37 40 42 40 41 40 42 41 39 41 40 41 41 42 45 51 50
47 49 49 48 48 48 48 47 45 45 43 42 38 35 32 33 36 35 36 38 37 35 35 35 36 38 39 42 42 43 43 44 45 46 44 43 43 42 42 40 38 42 45 49 53
49 50 49 48 50 48 47 47 45 44 42 44 41 37 36 36 37 38 40 38 38 35 34 35 38 40 41 43 45 47 47 48 49 48 44 45 47 48 46 42 42 42 44 48 53
53 50 48 48 50 51 48 47 45 44 41 44 44 40 41 41 40 40 39 41 40 41 39 37 38 40 41 37 39 42 44 43 45 48 50 50 50 51 44 38 42 41 40 45 51
52 52 51 53 52 50 47 49 45 43 42 44 41 40 43 42 40 36 35 41 44 41 42 43 43 42 43 42 44 45 47 48 48 50 52 53 52 49 48 44 40 39 38 39 44
55 57 53 55 55 51 51 50 48 42 40 42 38 37 41 42 42 38 32 30 36 47 49 54 53 48 47 52 55 51 51 53 53 52 50 51 47 47 47 45 45 43 41 40 39
60 59 58 57 58 55 53 49 50 46 44 43 46 49 45 45 44 44 43 43 44 42 37 42 46 52 53 57 59 58 53 47 44 48 49 48 45 49 45 42 44 44 44 44 42
59 58 62 55 49 47 49 50 51 50 50 51 51 51 48 47 47 47 49 49 47 46 46 45 47 46 45 46 46 47 49 50 51 50 53 53 48 51 52 49 45 44 44 43 41
41 46 38 35 41 39 37 37 44 50 47 46 50 53 50 44 45 45 46 49 48 50 51 51 52 55 55 52 52 52 52 53 52 51 54 51 52 46 44 47 50 51 48 48 46
62 56 48 50 33 32 30 28 30 35 35 44 45 49 49 46 48 44 46 46 48 49 49 49 51 53 53 55 56 54 54 54 53 49 50 49 49 48 48 48 47 46 47 51 54
56 60 54 52 55 46 41 45 37 32 33 26 38 39 44 46 47 47 46 45 46 49 52 52 53 53 51 48 48 47 48 49 51 52 49 52 52 50 50 51 51 50 53 54 56
46 41 45 47 47 39 37 37 42 35 32 35 32 36 35 38 44 46 49 50 53 52 52 48 49 48 48 48 46 45 46 48 51 53 54 55 61 50 49 55 56 58 58 59 59
50 43 46 46 43 38 43 39 40 34 39 36 35 36 36 36 35 40 45 48 48 46 44 44 43 43 44 44 46 47 50 52 52 54 57 55 64 54 55 65 64 63 62 62 62
54 50 48 44 46 37 43 39 39 40 40 37 36 36 36 35 39 39 39 40 40 41 41 41 42 43 45 46 47 49 50 52 55 58 59 57 68 61 60 66 65 66 66 66 67
52 51 49 49 49 48 47 43 44 41 40 39 39 40 38 38 39 38 37 36 38 41 42 43 43 44 45 45 48 51 53 57 58 61 61 62 66 66 64 66 69 70 71 71 71
53 53 52 56 55 54 52 53 50 46 45 43 43 44 41 40 39 39 38 38 40 40 40 40 42 44 46 48 51 53 54 55 58 60 62 60 67 65 68 71 74 77 77 77 77
54 54 51 55 54 55 54 56 53 50 49 45 45 46 45 43 42 40 41 43 42 40 40 43 46 46 48 50 50 51 53 57 60 61 64 63 65 68 68 64 67 67 64 53 52
50 47 52 50 50 53 56 54 53 51 49 47 47 45 42 42 40 39 39 41 39 40 40 42 45 47 48 49 51 53 55 55 55 54 52 50 48 35 28 32 32 33 31 24 29
49 50 49 45 44 48 51 51 48 51 50 46 46 45 42 39 37 36 38 38 38 40 43 42 42 46 48 50 52 53 51 51 50 28 23 24 15 13 16 22 26 27 28 23 19
50 51 53 52 54 55 50 50 50 50 45 43 42 44 40 37 36 36 35 35 39 37 37 40 43 47 50 48 48 47 37 33 26 16 12 19 20 19 22 27 21 23 19 17 12
49 50 46 48 48 46 47 47 45 43 41 43 42 43 36 36 36 32 34 36 34 36 39 41 44 45 44 40 33 30 24 19 16 18 22 22 25 20 21 25 16 11 10 20 15
48 46 42 47 46 43 41 41 39 42 42 46 42 37 31 30 31 33 29 31 35 38 40 42 42 40 32 28 22 18 20 19 21 20 18 20 20 17 19 23 13 13 12 3 11
47 47 46 43 46 45 41 43 41 43 45 39 28 27 32 30 25 26 29 34 36 38 40 37 32 26 19 22 22 21 17 19 19 21 25 24 23 19 11 16 23 21 18 13 12
43 43 43 41 41 45 46 38 41 37 31 27 29 28 25 19 23 29 31 32 34 35 32 25 16 16 18 21 18 18 17 17 18 16 22 23 18 16 15 13 17 17 23 12 14
39 39 43 42 33 29 31 41 38 30 31 31 27 19 18 22 26 27 29 30 30 27 20 15 15 15 12 12 16 15 14 13 17 20 17 15 16 19 19 12 13 17 17 23 13
Wind_Direction
264 267 267 269 269 269 273 275 272 276 277 277 278 280 281 280 280 277 274 275 276 275 276 274 272 272 275 276 274 273 273 278 288 285 275 268 270 271 273 270 268 267 271 268 269
261 264 267 267 270 271 273 275 274 279 282 280 279 282 286 284 282 281 277 276 275 276 276 277 276 276 276 276 277 278 276 283 283 281 275 271 271 272 273 273 269 269 272 275 269
260 261 264 265 269 271 271 272 275 276 279 280 283 285 286 285 282 282 282 276 274 274 275 277 276 274 273 272 276 277 278 277 277 280 280 272 273 274 272 271 270 266 268 276 276
256 258 263 265 267 271 271 269 270 274 275 277 278 281 285 286 282 281 275 271 269 271 271 271 271 270 269 270 274 277 278 275 275 281 280 274 272 276 272 266 260 263 261 263 271
259 259 261 262 267 269 271 268 269 269 271 273 276 278 280 279 284 283 274 271 267 268 267 269 268 269 270 270 272 275 277 276 277 277 278 277 275 277 275 272 268 259 257 260 263
257 256 259 261 267 269 269 269 265 267 268 270 270 276 279 280 284 282 276 271 269 269 267 264 265 268 269 273 273 272 275 277 278 280 281 280 278 276 276 272 270 268 261 257 257
259 257 256 258 263 267 267 267 265 267 269 270 267 273 277 280 280 284 277 275 268 268 269 267 265 266 269 272 274 274 274 276 279 278 279 280 278 273 273 276 276 273 273 267 262
257 257 256 259 262 267 266 268 264 266 266 266 261 268 276 279 275 276 274 284 280 268 268 271 270 268 271 274 272 272 274 275 275 278 277 274 274 274 273 275 275 275 275 272 263
255 253 254 260 262 263 261 264 261 263 264 264 263 269 277 278 270 270 272 278 281 274 274 277 275 271 270 269 269 274 274 276 273 272 273 272 271 274 277 276 275 275 276 276 275
256 254 255 259 258 260 262 262 259 258 264 262 264 269 273 273 268 269 273 276 276 275 274 270 276 280 278 273 275 275 274 275 276 274 272 273 271 274 276 276 277 277 277 277 277
246 245 246 250 251 250 253 257 262 262 261 262 264 269 269 269 268 269 273 275 277 278 277 272 272 274 276 279 280 277 277 275 274 274 270 272 269 272 275 277 277 278 278 277 275
264 268 264 268 249 258 267 272 259 269 269 265 262 264 268 267 265 267 271 273 275 276 277 278 278 276 277 277 277 277 276 275 276 277 276 274 267 270 277 278 277 274 271 270 268
268 277 277 279 283 293 288 289 282 276 270 283 265 265 265 267 267 269 269 269 269 273 274 275 277 278 277 277 276 277 278 278 279 277 278 278 268 270 274 275 274 273 271 269 267
254 260 254 267 273 267 270 274 286 283 277 278 275 271 278 277 274 275 271 270 273 274 273 276 276 276 277 277 277 278 279 278 278 280 280 282 277 267 272 273 274 274 273 271 268
248 238 248 260 255 260 258 252 249 253 265 271 274 273 274 276 277 277 272 270 272 275 275 275 273 274 275 276 278 280 281 282 282 282 283 285 283 274 278 277 278 275 271 270 269
246 244 242 242 247 247 246 247 248 251 251 253 265 265 265 265 273 269 270 273 273 274 274 271 272 273 275 277 279 279 280 282 283 284 283 283 283 284 281 277 275 274 272 270 269
247 243 240 240 242 244 245 254 250 251 258 256 258 259 260 261 261 264 266 266 268 268 269 271 273 274 276 278 281 283 286 286 285 284 283 284 282 285 280 276 273 268 267 265 265
249 247 242 237 244 243 243 252 251 252 256 257 259 258 257 260 261 267 270 269 269 274 277 280 280 281 284 284 285 284 283 283 284 283 283 281 281 282 281 277 275 272 269 267 264
250 250 247 244 244 244 245 250 252 253 257 260 260 258 257 260 263 267 271 272 273 278 281 284 284 284 284 284 284 284 286 287 289 287 287 284 283 283 284 285 283 281 278 277 275
243 242 248 248 246 246 244 251 250 253 260 261 261 261 257 260 266 270 273 274 277 278 279 280 281 281 281 284 289 289 290 293 295 296 297 296 294 291 293 291 306 295 287 277 276
230 224 238 237 235 238 246 249 251 255 262 259 259 259 260 261 264 268 272 275 276 279 282 283 282 287 290 291 294 297 296 293 292 302 318 309 284 298 315 339 312 309 291 284 277
226 226 228 230 237 244 250 251 254 259 256 255 256 258 258 262 265 268 273 274 281 281 283 285 290 293 293 297 295 293 297 297 290 283 303 308 285 272 298 315 351 345 332 327 267
225 226 226 233 236 241 243 244 249 248 250 251 254 257 255 263 267 268 273 280 281 285 287 289 291 293 292 291 297 298 304 283 273 270 284 293 308 306 297 310 321 302 298 308 278
223 219 230 229 236 237 237 238 240 245 247 249 249 250 257 258 259 274 277 280 284 286 289 290 292 293 292 291 297 305 303 279 281 268 286 291 301 307 300 299 299 297 257 243 289
222 225 223 234 238 233 231 234 240 245 247 243 242 250 248 255 264 270 277 283 285 288 290 293 294 293 286 285 309 311 296 284 280 275 280 292 288 292 294 291 294 290 292 241 208
223 228 225 231 233 240 236 233 240 235 242 244 241 238 250 258 263 273 277 281 287 290 292 295 288 287 278 298 311 313 301 291 283 293 284 283 288 300 299 270 284 291 301 262 247
223 227 229 237 236 242 239 234 228 225 232 229 234 237 249 257 267 273 279 284 288 291 292 296 288 296 299 306 322 324 307 298 303 311 280 304 301 304 305 277 261 271 285 299 270